Location: ?????????
(53.2086°N, 54.0693°E)
Time: 07:33:44
(UTC+00:00)

Cosmos 1703 Rocket - Pass Details

Date: 08 December 2019
Orbit: 604 x 635 km, 82.5° (Epoch: 24 January)

Event Time Altitude Azimuth Distance (km) Brightness Sun altitude
Rises 14:39:52 0° 183° (S) 2,913 7.2 -21.6°
Reaches altitude 10° 14:42:05 10° 181° (S) 2,013 6.3 -21.9°
Maximum altitude 14:46:32 71° 98° (E) 677 3.4 -22.6°
Enters shadow 14:46:41 70° 81° (E) 680 3.4 -22.6°
